Pensacola, FL

6:09 AM CST on February 24, 2017 (GMT -0600)
Pensacola Regional

Weather History for KPNS - April, 2014

Change the Weather History Date:

Tuesday, April 15, 2014

  Actual Average Record
Temperature  
Mean Temperature 57 °F 66 °F  
Max Temperature 67 °F 76 °F 89 °F (1981)
Min Temperature 47 °F 57 °F 40 °F (2008)
Degree Days  
Heating Degree Days 8 2  
Month to date heating degree days 23 38  
Since 1 July heating degree days 1565 1522  
Cooling Degree Days 0 3  
Month to date cooling degree days 46 36  
Year to date cooling degree days 67 83  
Growing Degree Days 8 (Base 50)    
Moisture  
Dew Point 50 °F    
Average Humidity 65    
Maximum Humidity 89    
Minimum Humidity 40    
Precipitation  
Precipitation 0.67 in 0.14 in 2.56 in (1947)
Month to date precipitation 5.13 2.32  
Year to date precipitation 26.24 17.82  
Sea Level Pressure  
Sea Level Pressure 29.92 in    
Wind  
Wind Speed 15 mph (NNW)    
Max Wind Speed 30 mph    
Max Gust Speed 38 mph    
Visibility 8 miles    
Events Rain , Thunderstorm    
T = Trace of Precipitation, MM = Missing Value Source: NWS Daily Summary

Daily Weather History Graph

Daily Weather History Graph

Search for Another Location

Airport or City:

Trip Planner

Search our weather history database for the weather conditions in past years. The results will help you decide how hot, cold, wet, or windy it might be!

Date:

Astronomy

Apr. 15, 2014 Rise Set
Actual Time 6:21 AM CDT 7:16 PM CDT
Civil Twilight 5:56 AM CDT 7:41 PM CDT
Nautical Twilight 5:27 AM CDT 8:10 PM CDT
Astronomical Twilight 4:57 AM CDT 8:40 PM CDT
Moon 7:54 PM CDT (4/15) 6:29 AM CDT (4/15)
Length of Visible Light 13h 44m
Length of Day
12h 55m
Full, 100% of the Moon is Illuminated
Apr 15
Full
Apr 22
Last Quarter
Apr 29
New
May 6
First Quarter
May 14
Full

Hourly Weather History & Observations

Time (CDT) Temp. Dew Point Humidity Pressure Visibility Wind Dir Wind Speed Gust Speed Precip Events Conditions
12:12 AM 66.9 °F 64.0 °F 90% 29.80 in 4.0 mi WNW 5.8 mph - 0.05 in Rain , Thunderstorm Heavy Thunderstorms and Rain
12:21 AM 66.9 °F 64.0 °F 90% 29.80 in 2.0 mi WNW 4.6 mph - 0.11 in Rain Heavy Rain
12:35 AM 66.9 °F 64.0 °F 90% 29.80 in 5.0 mi WNW 4.6 mph - 0.18 in Rain Heavy Rain
12:53 AM 66.9 °F 64.0 °F 90% 29.81 in 2.0 mi NW 5.8 mph - 0.29 in Rain , Thunderstorm Heavy Thunderstorms and Rain
1:02 AM 66.9 °F 64.0 °F 90% 29.80 in 2.5 mi NW 4.6 mph - 0.07 in Rain , Thunderstorm Heavy Rain
1:11 AM 66.9 °F 64.0 °F 90% 29.79 in 3.0 mi NW 6.9 mph - 0.12 in Rain Heavy Rain
1:20 AM 66.9 °F 64.0 °F 90% 29.81 in 3.0 mi SSW 8.1 mph - 0.16 in Rain Heavy Rain
1:29 AM 66.9 °F 64.0 °F 90% 29.78 in 2.0 mi North 3.5 mph - 0.24 in Rain Heavy Rain
1:40 AM 66.9 °F 64.0 °F 90% 29.78 in 5.0 mi NNW 5.8 mph - 0.28 in Rain Light Rain
1:53 AM 66.0 °F 63.0 °F 90% 29.77 in 9.0 mi North 8.1 mph - 0.29 in Rain Rain
2:53 AM 66.0 °F 63.0 °F 90% 29.76 in 9.0 mi NNE 4.6 mph - 0.09 in Rain Light Rain
3:42 AM 66.0 °F 63.0 °F 90% 29.76 in 6.0 mi NNW 9.2 mph - 0.03 in Rain Rain
3:53 AM 66.0 °F 63.0 °F 90% 29.78 in 5.0 mi NW 8.1 mph - 0.05 in Rain Light Rain
4:53 AM 66.0 °F 63.0 °F 90% 29.77 in 10.0 mi NW 6.9 mph - 0.10 in Rain Light Rain
5:08 AM 66.0 °F 63.0 °F 90% 29.78 in 10.0 mi WNW 9.2 mph - 0.01 in Rain Light Rain
5:33 AM 60.1 °F 55.9 °F 86% 29.80 in 10.0 mi NNW 25.3 mph 36.8 mph 0.01 in Rain Light Rain
5:53 AM 57.0 °F 54.0 °F 89% 29.84 in 4.0 mi NW 23.0 mph 34.5 mph 0.11 in Rain Heavy Rain
6:14 AM 55.9 °F 52.0 °F 87% 29.85 in 6.0 mi NW 18.4 mph 27.6 mph 0.05 in Rain Rain
6:32 AM 55.0 °F 51.1 °F 86% 29.86 in 10.0 mi NNW 23.0 mph 28.8 mph 0.07 in Rain Light Rain
6:53 AM 53.1 °F 50.0 °F 89% 29.87 in 10.0 mi NNW 21.9 mph 29.9 mph 0.08 in Rain Light Rain
7:15 AM 53.1 °F 48.9 °F 86% 29.87 in 10.0 mi NNW 20.7 mph 29.9 mph 0.00 in   Overcast
7:53 AM 52.0 °F 48.9 °F 89% 29.91 in 4.0 mi NW 20.7 mph 28.8 mph 0.00 in Rain Light Rain
8:25 AM 52.0 °F 48.0 °F 86% 29.92 in 7.0 mi NNW 18.4 mph 26.5 mph 0.00 in Rain Light Rain
8:33 AM 51.1 °F 48.0 °F 89% 29.92 in 5.0 mi NNW 19.6 mph 31.1 mph 0.00 in Rain Light Rain
8:42 AM 51.1 °F 46.9 °F 86% 29.92 in 7.0 mi NNW 19.6 mph 34.5 mph 0.00 in Rain Light Rain
8:53 AM 51.1 °F 46.9 °F 86% 29.94 in 9.0 mi NNW 24.2 mph 31.1 mph 0.00 in Rain Light Rain
9:53 AM 51.1 °F 45.0 °F 80% 29.97 in 10.0 mi North 23.0 mph 34.5 mph 0.00 in   Overcast
10:00 AM 53.1 °F 46.0 °F 77% 29.98 in 10.0 mi NNW 25.3 mph 32.2 mph N/A   Overcast
10:53 AM 53.1 °F 42.1 °F 66% 30.00 in 10.0 mi NNW 26.5 mph 33.4 mph N/A   Mostly Cloudy
11:53 AM 54.0 °F 41.0 °F 62% 30.01 in 10.0 mi North 18.4 mph 33.4 mph N/A   Mostly Cloudy
12:53 PM 53.1 °F 39.9 °F 61% 30.04 in 10.0 mi NNW 23.0 mph 36.8 mph N/A   Overcast
1:53 PM 55.0 °F 39.0 °F 55% 30.04 in 10.0 mi NNW 18.4 mph 34.5 mph N/A   Mostly Cloudy
2:10 PM 55.9 °F 39.0 °F 53% 30.02 in 10.0 mi North 23.0 mph 33.4 mph N/A   Scattered Clouds
2:53 PM 57.0 °F 39.0 °F 51% 30.03 in 10.0 mi NNW 21.9 mph 33.4 mph N/A   Partly Cloudy
3:53 PM 57.9 °F 37.9 °F 47% 30.00 in 10.0 mi North 19.6 mph 28.8 mph N/A   Clear
4:53 PM 57.9 °F 35.1 °F 42% 30.00 in 10.0 mi North 16.1 mph 27.6 mph N/A   Clear
5:53 PM 57.0 °F 34.0 °F 42% 30.04 in 10.0 mi North 12.7 mph 20.7 mph N/A   Clear
6:53 PM 55.9 °F 34.0 °F 44% 30.07 in 10.0 mi North 10.4 mph - N/A   Clear
7:53 PM 54.0 °F 33.1 °F 45% 30.10 in 10.0 mi North 9.2 mph - N/A   Clear
8:53 PM 53.1 °F 34.0 °F 48% 30.12 in 10.0 mi NNW 10.4 mph - N/A   Clear
9:53 PM 52.0 °F 34.0 °F 50% 30.15 in 10.0 mi NNW 10.4 mph - N/A   Clear
10:53 PM 50.0 °F 35.1 °F 57% 30.17 in 10.0 mi NNW 10.4 mph - N/A   Clear
11:53 PM 48.9 °F 35.1 °F 59% 30.17 in 10.0 mi North 11.5 mph - N/A   Clear